Wind_Speed
4 4 3 2 0 1 2 4 8 11 12 11 9 9 10 10 11 11 11 10 10 9 9 9 9 9 10 10 10 10 10 10 10 9 9 9 8 8 7 7 7 7 6 5 5 5 5 4 4
4 5 4 3 0 3 4 7 10 13 13 12 10 9 10 11 12 12 11 12 11 10 10 10 10 10 10 11 11 11 11 11 11 10 10 10 9 9 8 8 8 8 8 7 6 6 6 5 5
4 4 3 2 2 3 7 10 13 13 14 12 11 11 11 12 12 13 12 12 11 10 11 10 11 11 11 12 12 12 12 12 12 11 11 12 11 10 10 9 10 10 9 8 8 7 7 6 6
5 4 3 2 3 6 10 12 14 13 13 13 12 13 12 13 14 14 13 13 12 11 11 11 12 12 12 12 13 13 13 13 12 12 12 12 12 12 11 10 10 10 10 10 9 9 8 8 7
5 4 4 4 5 8 10 13 15 13 14 13 13 14 14 14 14 15 15 15 14 13 13 13 13 13 13 13 13 14 14 14 13 13 13 13 12 12 12 12 12 11 11 10 10 10 10 9 9
6 5 4 7 7 10 13 15 15 14 15 15 14 15 15 16 14 14 15 16 16 14 13 14 14 14 15 14 14 14 15 15 14 14 13 14 13 13 13 13 12 12 11 11 11 10 11 11 10
7 7 7 7 8 12 17 18 17 16 16 15 16 16 16 16 15 15 16 16 17 15 14 15 15 15 16 15 15 15 15 15 15 15 15 14 14 14 14 13 13 12 12 12 11 11 11 11 11
8 8 8 7 10 13 18 19 17 17 17 16 17 17 17 17 16 16 17 17 18 17 16 16 16 16 17 16 16 16 16 16 17 16 16 15 15 15 14 14 13 13 13 13 12 12 12 12 12
7 9 8 9 12 14 18 18 18 17 17 17 17 17 17 17 17 17 18 18 18 18 18 18 18 17 17 17 17 17 18 17 17 17 17 16 15 15 14 14 14 13 13 13 13 12 12 12 12
8 10 10 12 13 15 17 18 18 17 17 18 17 18 18 17 18 19 18 19 19 20 20 19 19 19 19 19 18 18 18 18 18 17 17 17 16 16 15 15 15 14 13 13 12 12 12 13 13
10 11 11 12 13 14 15 17 17 16 17 18 19 19 20 19 20 20 19 20 20 20 21 20 19 19 19 18 19 19 18 18 18 18 17 17 17 16 16 16 15 15 14 13 13 12 13 13 14
11 12 12 12 14 13 14 16 17 17 18 18 20 21 21 21 21 22 21 20 21 21 21 21 20 19 19 18 19 18 18 18 19 19 18 18 17 17 16 16 15 15 15 14 13 13 13 13 13
11 12 12 13 14 15 16 15 15 17 19 19 20 21 21 22 22 22 22 21 21 21 22 22 21 20 20 20 19 18 19 20 20 18 18 18 18 17 17 16 15 15 15 15 15 14 14 14 14
11 11 12 12 14 16 16 16 17 16 18 18 20 21 22 22 23 23 22 22 22 22 21 21 21 22 21 21 20 20 19 19 19 19 19 18 18 18 18 17 17 16 16 15 15 16 15 15 15
11 11 12 12 14 16 16 16 17 18 19 19 20 21 23 23 23 23 23 23 22 22 22 21 21 22 21 21 21 20 20 19 19 19 18 18 18 18 18 17 17 17 16 16 16 17 18 17 17
11 12 12 14 15 17 18 17 18 18 19 20 20 21 23 24 23 23 23 22 22 22 22 22 21 21 21 21 21 20 20 19 19 19 19 18 19 18 17 17 17 17 17 17 17 18 18 18 18
11 13 14 15 16 17 17 17 19 19 18 19 21 22 24 24 23 22 22 22 22 21 22 21 20 21 21 21 21 20 20 19 19 19 19 19 19 18 18 18 17 17 18 17 19 19 18 18 18
12 13 13 14 14 17 18 17 19 20 20 20 21 22 24 23 23 22 22 22 22 21 21 21 21 20 20 20 19 18 19 19 18 18 18 19 18 18 19 18 18 18 19 19 20 19 19 19 19
13 12 12 14 14 16 16 17 18 19 18 20 21 22 22 22 21 21 21 21 20 19 19 20 19 19 18 18 17 17 18 18 18 17 18 18 18 18 19 19 18 19 19 19 19 20 19 19 19
12 13 14 15 15 17 18 18 17 19 19 20 21 21 22 22 21 21 21 20 19 18 18 18 18 18 17 17 16 17 18 18 17 17 18 17 18 18 19 19 19 19 20 20 20 20 20 20 20
14 15 16 17 14 16 18 17 18 18 20 20 20 21 21 21 21 20 19 18 17 17 16 16 17 16 16 16 16 17 17 17 16 17 18 17 17 18 18 19 19 20 21 20 19 20 20 20 21
16 15 16 16 15 16 17 18 18 18 20 21 20 20 20 20 19 18 15 15 16 16 16 16 15 15 15 16 16 16 16 16 16 17 17 17 17 18 18 19 19 20 20 20 20 20 21 21 21
16 15 15 16 16 17 17 19 19 18 21 21 19 19 20 19 19 18 17 16 16 16 15 15 15 15 16 16 16 16 16 16 16 17 17 17 18 18 18 19 19 20 19 20 20 20 21 21 21
15 14 14 14 15 18 16 18 19 18 20 21 20 20 21 20 18 17 17 16 16 16 15 15 15 16 16 16 16 16 16 15 16 17 16 16 17 17 18 18 18 18 19 19 19 20 21 21 22
15 14 15 16 16 16 15 18 19 19 21 21 21 20 20 19 18 17 17 17 15 15 15 15 15 15 15 16 16 16 16 16 16 17 17 17 17 17 17 17 17 18 18 19 19 20 20 20 22
16 15 16 18 16 17 17 19 20 20 21 22 20 19 19 17 17 17 16 15 15 15 15 15 15 16 16 16 16 16 17 17 17 17 17 17 16 17 18 19 19 19 19 20 20 21 21 21 21
17 16 17 18 18 18 17 18 21 19 21 22 21 20 19 17 16 16 15 14 14 15 14 14 15 15 16 16 17 17 16 17 17 17 17 17 17 18 18 19 19 19 20 20 21 21 21 21 22
16 15 16 17 17 17 17 17 20 21 20 22 20 20 18 17 15 16 16 14 14 15 15 15 15 16 16 17 16 15 16 17 17 18 17 17 18 19 20 19 19 19 20 21 21 21 21 22 22
16 16 17 17 18 18 18 18 21 22 23 21 20 20 20 19 17 17 17 16 15 15 16 16 16 16 16 16 16 15 15 16 17 17 17 18 18 20 21 20 20 21 22 22 22 21 22 22 23
17 17 18 19 19 19 20 20 21 23 23 22 21 20 18 18 18 17 18 17 16 15 15 16 15 16 16 15 15 15 15 16 16 17 18 19 20 21 21 21 21 22 22 22 21 21 22 22 23
Wind_Direction
243 246 233 241 301 47 11 276 266 266 264 268 268 269 269 272 280 281 285 285 284 287 286 283 280 278 278 276 275 271 269 269 269 269 268 266 262 262 266 269 266 270 274 276 278 278 279 282 286
241 245 238 237 272 20 297 268 265 267 269 274 272 271 272 274 277 278 280 283 284 284 284 282 278 276 279 278 274 271 270 268 266 263 266 267 267 269 271 272 272 272 273 271 273 277 277 277 280
236 240 251 267 283 283 266 264 264 271 278 277 276 274 272 275 280 281 284 284 283 283 283 282 279 277 277 276 274 270 270 269 263 262 264 267 270 274 274 274 275 275 275 272 272 273 274 274 277
230 231 240 255 265 267 264 271 277 277 276 278 275 279 272 273 280 284 285 285 285 280 280 282 281 280 276 273 271 269 270 269 264 264 266 267 270 273 273 275 276 276 275 273 273 274 274 275 276
231 232 239 267 257 267 266 272 273 269 274 278 275 275 277 279 280 283 285 285 285 280 279 281 280 279 276 276 272 271 270 268 265 265 266 269 270 272 273 274 275 275 274 272 272 272 274 275 277
231 230 243 264 272 277 274 271 276 275 273 275 275 275 276 279 282 284 285 286 288 284 281 280 280 279 278 278 275 271 270 268 266 266 267 270 270 271 272 271 274 274 273 273 272 272 274 274 276
226 228 232 249 268 274 273 273 274 272 271 274 275 273 278 281 282 285 286 286 288 287 284 281 281 280 278 277 276 272 270 270 268 268 269 270 269 271 272 271 273 272 271 273 273 273 276 274 274
226 235 227 236 258 268 272 275 273 271 269 270 273 272 278 281 285 285 286 285 288 288 285 281 280 279 279 277 275 271 269 269 269 268 268 268 269 270 270 271 273 272 271 271 272 274 274 273 275
231 242 235 233 249 260 269 274 276 281 277 278 277 277 279 282 286 285 285 284 284 285 285 283 281 278 277 276 274 271 269 268 269 268 268 265 267 269 271 272 273 273 270 269 271 275 274 273 274
239 244 239 241 254 262 271 277 278 282 280 280 278 280 284 284 283 285 287 284 284 285 283 281 282 281 279 274 272 271 269 268 268 269 269 265 265 268 269 272 270 273 271 272 274 276 276 277 276
251 250 249 250 258 261 269 275 280 281 279 277 279 282 285 285 286 287 288 286 284 286 284 279 280 280 281 274 274 272 269 270 269 270 269 266 264 267 267 270 271 274 275 275 275 277 278 281 280
253 254 253 258 261 268 271 275 278 280 280 280 280 281 285 287 288 287 287 289 286 283 284 282 279 279 280 278 278 273 270 270 271 268 268 268 267 267 266 267 270 273 274 275 274 274 276 279 279
252 258 260 263 269 274 275 278 281 281 281 284 284 288 288 287 288 286 285 286 287 284 282 284 278 276 277 279 279 273 273 270 271 270 267 267 268 267 265 267 269 272 275 276 275 277 276 276 278
250 260 262 265 273 278 282 284 285 286 284 287 287 289 290 288 287 285 284 285 285 285 284 282 281 276 276 279 277 275 273 273 272 271 267 266 266 267 266 265 269 272 273 275 276 276 278 278 278
255 259 269 274 274 278 283 284 284 286 291 292 291 291 291 289 287 287 285 284 284 284 284 282 281 279 277 279 276 273 271 269 270 271 268 266 265 265 266 268 270 272 273 275 274 276 279 280 281
263 271 276 278 276 279 285 287 287 290 293 293 293 292 291 289 288 287 283 282 282 283 283 281 278 277 277 276 276 272 268 266 267 268 266 267 263 263 267 269 271 271 272 274 273 277 280 280 282
269 271 273 271 278 282 284 287 288 291 293 295 296 294 293 292 288 285 283 282 282 281 281 281 276 275 275 275 273 270 265 266 267 268 265 265 264 264 267 269 272 271 273 275 276 278 280 279 280
267 270 270 274 281 280 284 287 288 291 294 297 297 295 295 293 287 284 284 285 283 280 279 278 277 275 275 276 271 268 264 265 266 265 265 264 266 265 267 270 272 273 275 277 278 278 278 278 280
262 266 273 278 281 281 281 284 287 292 296 299 300 299 298 294 291 287 286 285 283 279 278 277 276 275 273 274 273 268 263 263 264 266 265 265 267 268 268 270 273 277 278 278 274 274 276 277 280
260 264 266 265 268 275 281 286 288 292 301 302 302 303 302 298 295 290 287 281 279 280 279 278 275 275 273 274 275 270 264 262 261 264 266 264 268 270 270 270 271 275 276 278 276 276 278 278 279
264 267 269 271 272 276 278 285 288 294 301 303 304 305 305 303 300 296 287 279 278 280 282 280 276 274 276 276 275 271 261 260 264 264 267 266 269 272 273 273 273 274 275 277 279 279 278 280 281
267 265 272 274 274 276 284 288 291 295 298 301 303 305 305 302 300 299 293 283 280 280 281 279 275 273 273 274 272 270 263 263 265 266 267 267 269 273 275 275 276 276 277 277 279 282 280 280 282
266 268 271 270 269 269 275 279 287 292 296 300 303 304 306 304 302 299 295 289 284 281 280 275 273 274 273 275 275 272 267 266 265 266 267 266 268 272 275 277 277 276 277 278 278 280 282 282 283
268 270 268 271 276 275 274 279 284 292 297 301 305 305 305 304 301 296 293 289 285 281 280 276 274 276 278 276 276 273 267 267 267 266 267 269 272 276 279 280 280 278 278 278 280 281 281 284 286
257 267 274 275 273 277 280 279 284 290 294 298 299 300 302 302 299 296 292 287 283 280 279 277 279 282 282 279 276 272 268 270 267 265 266 269 275 279 282 283 283 283 281 279 279 280 283 286 286
262 264 269 277 280 282 282 280 285 289 292 295 297 298 298 300 299 298 294 286 280 278 277 277 282 283 283 282 280 277 275 275 271 270 270 272 276 279 282 282 283 284 284 282 282 281 283 285 287
265 262 262 267 270 276 279 283 286 287 290 293 295 296 297 297 298 297 294 288 282 281 281 280 281 280 282 283 282 280 277 276 273 271 271 274 278 281 284 285 282 283 285 285 284 284 284 286 286
262 262 261 263 267 270 275 278 281 283 286 295 298 296 293 294 294 293 295 290 284 283 282 283 282 279 279 281 281 279 278 278 277 275 275 277 281 283 285 281 281 281 282 284 285 285 283 285 285
262 259 260 262 268 273 273 273 278 283 287 288 289 290 294 292 291 290 292 291 288 283 282 283 284 280 280 279 277 278 279 280 280 278 280 282 283 284 283 280 281 281 282 284 283 283 283 284 284
262 261 258 262 266 265 268 271 274 280 284 285 284 285 289 288 290 287 288 289 286 282 281 281 282 281 280 276 275 278 281 283 283 284 284 285 286 287 284 284 285 284 284 283 283 282 283 284 283
Height
5888 5889 5890 5891 5892 5892 5893 5894 5893 5893 5893 5892 5892 5892 5891 5891 5892 5892 5890 5888 5889 5889 5888 5888 5888 5888 5888 5888 5888 5887 5887 5887 5887 5887 5887 5886 5886 5886 5886 5886 5886 5885 5885 5885 5884 5884 5884 5884 5883
5887 5888 5889 5890 5890 5891 5893 5893 5892 5891 5891 5890 5890 5890 5890 5890 5889 5888 5887 5887 5887 5887 5887 5887 5887 5887 5886 5886 5886 5886 5886 5886 5886 5885 5885 5885 5885 5885 5885 5884 5884 5884 5884 5884 5883 5883 5883 5883 5883
5886 5887 5888 5888 5889 5891 5892 5892 5889 5889 5888 5888 5888 5888 5888 5888 5887 5886 5886 5885 5886 5886 5885 5885 5885 5885 5885 5884 5884 5884 5884 5884 5884 5883 5884 5884 5883 5883 5883 5883 5883 5883 5882 5882 5882 5882 5882 5882 5881
5885 5886 5887 5889 5890 5891 5891 5890 5888 5887 5886 5886 5886 5886 5886 5885 5885 5885 5884 5884 5884 5884 5883 5883 5883 5883 5883 5882 5882 5882 5882 5882 5882 5882 5882 5882 5882 5881 5881 5881 5881 5881 5881 5881 5881 5881 5881 5880 5880
5883 5885 5886 5887 5888 5889 5889 5888 5885 5884 5884 5884 5884 5884 5883 5882 5882 5882 5882 5881 5881 5882 5881 5881 5881 5880 5880 5880 5880 5880 5880 5880 5879 5879 5880 5880 5880 5879 5879 5879 5879 5879 5879 5879 5879 5879 5879 5879 5879
5882 5883 5885 5886 5887 5888 5887 5885 5884 5882 5882 5882 5881 5881 5879 5879 5878 5879 5879 5878 5878 5879 5879 5878 5878 5878 5878 5877 5877 5877 5877 5877 5877 5877 5877 5877 5877 5877 5877 5877 5877 5877 5877 5877 5877 5877 5877 5877 5877
5880 5881 5883 5884 5886 5887 5884 5882 5882 5881 5880 5880 5879 5878 5876 5876 5876 5877 5876 5876 5875 5875 5876 5875 5875 5875 5874 5874 5874 5874 5874 5874 5874 5874 5875 5875 5875 5875 5875 5875 5875 5875 5875 5875 5875 5875 5875 5875 5875
5878 5880 5880 5883 5884 5885 5881 5879 5879 5878 5877 5877 5876 5875 5874 5874 5873 5874 5873 5873 5872 5872 5872 5872 5872 5871 5871 5871 5871 5871 5871 5871 5871 5871 5872 5872 5872 5872 5872 5873 5873 5872 5872 5873 5873 5873 5873 5873 5873
5876 5878 5879 5881 5881 5881 5878 5876 5875 5874 5874 5874 5873 5872 5872 5871 5870 5871 5870 5870 5870 5869 5868 5868 5868 5868 5868 5868 5868 5868 5868 5868 5868 5868 5868 5869 5869 5869 5870 5870 5870 5870 5870 5870 5870 5870 5870 5871 5871
5874 5876 5877 5878 5877 5877 5875 5873 5873 5872 5872 5871 5870 5869 5869 5868 5868 5868 5867 5867 5866 5866 5865 5864 5864 5864 5864 5864 5864 5864 5864 5865 5865 5865 5865 5866 5866 5866 5867 5867 5867 5867 5867 5867 5867 5867 5868 5868 5868
5871 5873 5873 5873 5873 5872 5872 5871 5870 5870 5870 5869 5867 5866 5866 5866 5865 5864 5864 5863 5863 5862 5861 5860 5860 5860 5859 5859 5860 5860 5860 5861 5861 5862 5862 5862 5863 5863 5864 5864 5864 5864 5864 5864 5865 5865 5865 5865 5865
5868 5869 5870 5870 5869 5868 5868 5868 5868 5867 5867 5866 5864 5863 5862 5862 5861 5861 5860 5859 5859 5858 5858 5857 5856 5856 5855 5855 5855 5855 5856 5857 5857 5858 5858 5858 5859 5859 5860 5860 5861 5861 5861 5861 5862 5862 5862 5862 5862
5865 5866 5866 5866 5866 5866 5865 5865 5865 5864 5863 5862 5860 5859 5859 5858 5857 5857 5856 5856 5855 5854 5854 5853 5852 5851 5852 5852 5852 5852 5852 5852 5853 5854 5854 5855 5855 5856 5856 5857 5857 5858 5858 5858 5858 5858 5859 5859 5859
5863 5863 5862 5863 5863 5863 5863 5862 5862 5860 5858 5858 5857 5856 5855 5854 5852 5851 5851 5851 5850 5850 5850 5848 5847 5847 5847 5848 5848 5848 5848 5848 5849 5850 5850 5851 5851 5852 5853 5853 5854 5854 5854 5855 5855 5855 5855 5855 5856
5860 5861 5861 5860 5861 5860 5860 5860 5858 5857 5856 5855 5854 5852 5851 5849 5848 5847 5847 5846 5846 5845 5845 5845 5844 5843 5843 5843 5844 5844 5844 5845 5845 5846 5846 5847 5848 5848 5849 5850 5850 5851 5851 5851 5851 5851 5852 5852 5852
5857 5858 5858 5859 5858 5857 5858 5856 5855 5854 5853 5851 5850 5848 5846 5845 5844 5843 5842 5841 5841 5840 5840 5840 5839 5839 5838 5839 5839 5840 5840 5840 5841 5842 5842 5843 5844 5845 5846 5846 5847 5847 5847 5847 5847 5848 5848 5848 5848
5854 5856 5856 5857 5855 5854 5854 5853 5852 5851 5849 5848 5846 5844 5842 5840 5839 5838 5837 5837 5836 5836 5835 5835 5835 5835 5834 5834 5834 5835 5836 5836 5837 5838 5838 5839 5840 5841 5842 5843 5843 5843 5843 5843 5843 5844 5844 5844 5844
5853 5854 5854 5854 5854 5852 5851 5850 5849 5847 5846 5845 5843 5840 5838 5835 5834 5833 5832 5832 5831 5831 5831 5830 5831 5830 5830 5830 5830 5831 5832 5832 5833 5834 5835 5835 5836 5837 5838 5839 5839 5839 5839 5839 5838 5839 5839 5840 5839
5850 5851 5852 5852 5851 5849 5848 5847 5846 5844 5843 5841 5839 5836 5834 5831 5829 5828 5828 5827 5827 5826 5826 5826 5826 5826 5826 5826 5826 5827 5828 5828 5829 5830 5831 5832 5833 5833 5834 5834 5835 5835 5835 5834 5833 5834 5835 5835 5835
5847 5848 5849 5849 5848 5846 5845 5844 5842 5841 5840 5838 5835 5832 5829 5826 5825 5823 5822 5822 5822 5822 5822 5822 5822 5822 5822 5822 5823 5823 5823 5824 5826 5827 5827 5828 5828 5829 5829 5830 5831 5831 5831 5830 5830 5830 5830 5829 5830
5845 5845 5845 5844 5843 5842 5842 5841 5839 5838 5837 5835 5832 5829 5826 5823 5821 5819 5817 5817 5818 5819 5818 5818 5818 5818 5819 5819 5819 5820 5819 5820 5821 5823 5824 5824 5825 5825 5825 5826 5826 5826 5826 5826 5826 5826 5825 5825 5825
5841 5842 5841 5841 5840 5839 5839 5837 5836 5835 5833 5831 5829 5826 5824 5821 5818 5816 5814 5814 5815 5815 5815 5815 5815 5815 5816 5816 5816 5816 5817 5817 5818 5820 5820 5821 5821 5822 5822 5822 5822 5822 5822 5822 5822 5821 5821 5821 5820
5838 5838 5838 5837 5836 5836 5836 5834 5834 5832 5829 5828 5826 5823 5820 5817 5815 5814 5812 5812 5812 5812 5812 5811 5812 5812 5812 5813 5813 5813 5814 5814 5815 5816 5817 5817 5818 5818 5818 5818 5818 5818 5817 5817 5817 5817 5816 5816 5815
5834 5834 5833 5833 5832 5832 5833 5832 5830 5829 5826 5824 5822 5820 5818 5815 5813 5811 5810 5809 5809 5809 5808 5809 5809 5809 5810 5810 5810 5810 5810 5811 5812 5812 5813 5814 5814 5814 5814 5814 5813 5813 5813 5813 5813 5812 5811 5811 5810
5830 5831 5830 5830 5829 5829 5829 5828 5827 5825 5824 5822 5819 5817 5815 5812 5810 5808 5807 5806 5806 5806 5805 5805 5806 5807 5807 5807 5806 5807 5807 5807 5807 5808 5809 5810 5810 5810 5810 5809 5809 5808 5808 5808 5807 5807 5806 5805 5805
5826 5827 5828 5827 5826 5826 5825 5823 5823 5820 5819 5817 5816 5814 5811 5809 5807 5805 5804 5803 5802 5803 5803 5803 5803 5803 5804 5804 5803 5803 5804 5803 5804 5804 5805 5806 5806 5806 5806 5805 5804 5804 5803 5803 5802 5802 5801 5800 5800
5822 5823 5824 5823 5822 5822 5821 5820 5818 5817 5815 5813 5811 5810 5808 5806 5804 5802 5801 5800 5800 5799 5800 5800 5800 5800 5800 5800 5800 5800 5800 5800 5800 5800 5801 5801 5801 5801 5801 5800 5800 5799 5799 5798 5797 5797 5796 5795 5794
5818 5819 5819 5818 5817 5817 5817 5817 5815 5812 5810 5809 5807 5805 5804 5803 5801 5799 5798 5797 5797 5796 5796 5797 5797 5797 5797 5797 5797 5796 5797 5797 5796 5796 5797 5797 5797 5796 5796 5795 5795 5794 5794 5793 5792 5791 5791 5790 5789
5814 5814 5813 5813 5813 5813 5812 5814 5810 5807 5806 5805 5803 5802 5800 5800 5798 5797 5796 5795 5794 5794 5794 5793 5793 5793 5793 5793 5793 5793 5793 5792 5792 5792 5792 5792 5792 5791 5791 5790 5789 5789 5788 5787 5787 5786 5785 5784 5783
5809 5809 5809 5809 5809 5808 5807 5810 5805 5803 5802 5800 5798 5798 5797 5796 5795 5793 5792 5792 5791 5791 5791 5790 5790 5789 5789 5789 5789 5789 5789 5788 5788 5788 5788 5787 5787 5786 5785 5784 5783 5783 5782 5781 5781 5780 5779 5778 5777